Printer-friendly version

IAU Minor Planet Center

Minor Planet Center

MPEC 2006-U98 : 2006 UR216

The following Minor Planet Electronic Circular may be linked-to from your own Web pages, but must not otherwise be redistributed electronically.


Read MPEC 2006-U97 Read MPEC 2006-U99


M.P.E.C. 2006-U98                                Issued 2006 Oct. 31, 14:22 UT

     The Minor Planet Electronic Circulars contain information on unusual
         minor planets and routine data on comets.  They are published
   on behalf of Commission 20 of the International Astronomical Union by the
          Minor Planet Center, Smithsonian Astrophysical Observatory,
                          Cambridge, MA 02138, U.S.A.

             Prepared using the Tamkin Foundation Computer Network

                              MPC@CFA.HARVARD.EDU
          URL http://cfa-www.harvard.edu/iau/mpc.html  ISSN 1523-6714

                                  2006 UR216

Observations:
     K06UL6R* C2006 10 30.45529 08 36 59.72 +39 27 27.0          21.2 V EU098G96
     K06UL6R  C2006 10 30.45617 08 37 00.08 +39 27 27.0          21.1 V EU098G96
     K06UL6R  C2006 10 30.45707 08 37 00.51 +39 27 27.0          20.8 V EU098G96
     K06UL6R  C2006 10 30.45796 08 37 00.87 +39 27 27.5          20.9 V EU098G96
     K06UL6R  C2006 10 30.49474 08 37 16.71 +39 27 35.2          20.9 V EU098G96
     K06UL6R  C2006 10 30.49539 08 37 16.96 +39 27 35.2          21.2 V EU098G96
     K06UL6R  C2006 10 31.40716 08 43 58.36 +39 29 44.4          21.0 V EU098G96
     K06UL6R  C2006 10 31.41550 08 44 02.07 +39 29 46.0          21.2 V EU098G96
     K06UL6R  C2006 10 31.42402 08 44 05.85 +39 29 46.7          21.4 V EU098G96
     K06UL6R  C2006 10 31.43257 08 44 09.56 +39 29 48.0          21.4 V EU098G96

Observer details:
G96 Mt. Lemmon Survey.  Observers E. J. Christensen, R. A. Kowalski.
    Measurers E. C. Beshore, E. J. Christensen, G. J. Garradd, A. R. Gibbs,
    A. D. Grauer, R. E. Hill, R. A. Kowalski, S. M. Larson, R. H. McNaught.
    1.5-m reflector + CCD.

Orbital elements:
2006 UR216                                          PHA, Earth MOID = 0.0344 AU
Epoch 2006 Sept. 22.0 TT = JDT 2454000.5                MPC
M 338.98133              (2000.0)            P               Q
n   0.20391711     Peri.  126.76100     -0.88414209     -0.44885942
a   2.8586892      Node    27.28482     +0.28470067     -0.73766724
e   0.7249911      Incl.   16.43320     +0.37045686     -0.50435332
P   4.83           H   19.5           G   0.15           U   9
Residuals in seconds of arc
061030 G96  0.0   0.1+    061030 G96  0.2+  0.1+    061031 G96  0.4+  0.2-
061030 G96  0.2-  0.1-    061030 G96  0.2-  0.0     061031 G96  0.3-  0.0
061030 G96  0.3+  0.3-    061031 G96  0.3-  0.1-
061030 G96  0.0   0.1+    061031 G96  0.1+  0.3+

Ephemeris:
2006 UR216               a,e,i = 2.86, 0.72, 16                  q = 0.7862
Date    TT    R. A. (2000) Decl.     Delta      r     Elong.  Phase     V
2006 11 01    08 48.37   +39 30.5    0.684    1.248    94.4    52.5    21.1
2006 11 11    10 09.96   +38 00.5    0.604    1.143    88.2    60.0    20.8
2006 11 21    11 35.76   +32 29.5    0.565    1.042    79.2    68.6    20.8
2006 12 01    12 51.41   +23 36.3    0.573    0.950    69.4    76.3    20.8
2006 12 11    13 51.88   +13 35.0    0.620    0.872    60.9    80.7    21.0

Timothy B. Spahr             (C) Copyright 2006 MPC           M.P.E.C. 2006-U98

Read MPEC 2006-U97 Read MPEC 2006-U99


Our Web policy. Index to the CBAT/MPC/ICQ pages.


Valid HTML 4.01!